Zurück zum Katalog

SL-16 DEB

AktivLEO
NORAD 22600·DEBRIS·🇷🇺 Russia

Gestartet Mar 26, 1993 von Baikonur Cosmodrome

Loading…

Nächste Überflüge (nächste 24 Stunden)

TLE

AktuellSource: Space-Track

Epoche: Sep 14, 2026, 14:20 UTC

1 22600U 93016J   26257.59745547  .00000011  00000-0  45806-4 0  9996
2 22600  70.9168 348.2865 0156733  84.7217 338.9372 13.82516460688017

Verfolge SL-16 DEB in Echtzeit mit AllMySat

Download on the App Store